TimeEDT,TemperatureF,Dew PointF,Humidity,Sea Level PressureIn,VisibilityMPH,Wind Direction,Wind SpeedMPH,Gust SpeedMPH,PrecipitationIn,Events,Conditions,WindDirDegrees,DateUTC
12:53 AM,51.1,46.9,86,30.26,10.0,Calm,Calm,-,N/A,,Clear,0,2013-06-21 04:53:00
1:53 AM,51.1,46.9,86,30.26,10.0,Calm,Calm,-,N/A,,Clear,0,2013-06-21 05:53:00
2:53 AM,48.9,46.0,90,30.26,10.0,Calm,Calm,-,N/A,,Clear,0,2013-06-21 06:53:00
3:53 AM,48.0,45.0,89,30.26,10.0,Calm,Calm,-,N/A,,Clear,0,2013-06-21 07:53:00
4:53 AM,46.0,43.0,89,30.26,10.0,SE,3.5,-,N/A,,Clear,130,2013-06-21 08:53:00
5:53 AM,46.0,42.1,86,30.27,10.0,Calm,Calm,-,N/A,,Clear,0,2013-06-21 09:53:00
6:53 AM,48.9,45.0,86,30.27,10.0,ESE,3.5,-,N/A,,Clear,110,2013-06-21 10:53:00
7:53 AM,57.9,51.1,78,30.26,10.0,ESE,3.5,-,N/A,,Clear,120,2013-06-21 11:53:00
8:53 AM,66.9,53.1,61,30.27,10.0,SE,3.5,-,N/A,,Clear,140,2013-06-21 12:53:00
9:53 AM,70.0,46.9,44,30.27,10.0,SW,5.8,-,N/A,,Clear,230,2013-06-21 13:53:00
10:53 AM,72.0,48.0,43,30.29,10.0,West,6.9,-,N/A,,Clear,280,2013-06-21 14:53:00
11:53 AM,73.9,48.0,40,30.27,10.0,WNW,9.2,-,N/A,,Clear,290,2013-06-21 15:53:00
12:53 PM,75.0,50.0,41,30.28,10.0,Calm,Calm,-,N/A,,Clear,0,2013-06-21 16:53:00
1:53 PM,77.0,48.9,37,30.27,10.0,West,9.2,-,N/A,,Clear,280,2013-06-21 17:53:00
2:53 PM,77.0,50.0,39,30.26,10.0,South,6.9,-,N/A,,Mostly Cloudy,170,2013-06-21 18:53:00
3:53 PM,78.1,51.1,39,30.27,10.0,West,9.2,-,N/A,,Mostly Cloudy,260,2013-06-21 19:53:00
4:53 PM,77.0,51.1,40,30.25,10.0,WSW,8.1,-,N/A,,Mostly Cloudy,240,2013-06-21 20:53:00
5:53 PM,78.1,51.1,39,30.24,10.0,WSW,8.1,-,N/A,,Scattered Clouds,250,2013-06-21 21:53:00
6:53 PM,75.9,51.1,42,30.24,10.0,Variable,3.5,-,N/A,,Scattered Clouds,0,2013-06-21 22:53:00
7:53 PM,75.0,54.0,48,30.22,10.0,Calm,Calm,-,N/A,,Partly Cloudy,0,2013-06-21 23:53:00
8:53 PM,66.9,57.0,70,30.21,10.0,Calm,Calm,-,N/A,,Clear,0,2013-06-22 00:53:00
9:53 PM,64.0,55.0,73,30.22,10.0,Calm,Calm,-,N/A,,Clear,0,2013-06-22 01:53:00
10:53 PM,57.9,54.0,87,30.23,9.0,Calm,Calm,-,N/A,,Clear,0,2013-06-22 02:53:00
11:53 PM,55.0,52.0,89,30.22,7.0,SE,3.5,-,N/A,,Clear,130,2013-06-22 03:53:00